Indiana, PA

11:34 AM EDT on October 19, 2019 (GMT -0400)
Indiana County-Stewart

Weather History for KIDI - August, 2019

Change the Weather History Date:

Friday, August 16, 2019

  Actual Average Record
Temperature  
Mean Temperature 73 °F -  
Max Temperature 82 °F 82 °F 94 °F (1965)
Min Temperature 64 °F 58 °F 43 °F (1963)
Cooling Degree Days 8    
Growing Degree Days 23 (Base 50)    
Moisture  
Dew Point 65 °F    
Average Humidity 79    
Maximum Humidity 100    
Minimum Humidity 51    
Precipitation  
Precipitation 0.00 in - - ()
Sea Level Pressure  
Sea Level Pressure 30.04 in    
Wind  
Wind Speed 2 mph (WSW)    
Max Wind Speed 10 mph    
Max Gust Speed 15 mph    
Visibility 10 miles    
Events      
Averages and records for this station are not official NWS values.
T = Trace of Precipitation, MM = Missing Value Source: NWS Daily Summary

Daily Weather History Graph

Daily Weather History Graph

Search for Another Location

Airport or City:

Astronomy

Aug. 16, 2019 Rise Set
Actual Time 6:27 AM EDT 8:13 PM EDT
Civil Twilight 5:58 AM EDT 8:42 PM EDT
Nautical Twilight 5:22 AM EDT 9:17 PM EDT
Astronomical Twilight 4:44 AM EDT 9:55 PM EDT
Moon 9:11 PM EDT (8/16) 7:17 AM EDT (8/16)
Length of Visible Light 14h 43m
Length of Day
13h 45m
Full, 99% of the Moon is Illuminated
Aug 16
Full
Aug 23
Last Quarter
Aug 30
New
Sep 5
First Quarter
Sep 14
Full

Hourly Weather History & Observations

Time (EDT) Temp. Heat Index Dew Point Humidity Pressure Visibility Wind Dir Wind Speed Gust Speed Precip Events Conditions
12:15 AM 68.0 °F - 66.2 °F 94% 30.02 in 10.0 mi Calm Calm - N/A   Mostly Cloudy
12:35 AM 68.0 °F - 66.2 °F 94% 30.02 in 9.0 mi Calm Calm - N/A   Mostly Cloudy
12:55 AM 68.0 °F - 66.2 °F 94% 30.02 in 10.0 mi Calm Calm - N/A   Overcast
1:35 AM 68.0 °F - 66.2 °F 94% 30.01 in 10.0 mi South 5.8 mph - N/A   Overcast
1:55 AM 68.0 °F - 66.2 °F 94% 30.02 in 10.0 mi Calm Calm - N/A   Overcast
2:15 AM 68.0 °F - 66.2 °F 94% 30.01 in 10.0 mi Calm Calm - N/A   Mostly Cloudy
2:35 AM 68.0 °F - 66.2 °F 94% 30.02 in 10.0 mi Calm Calm - N/A   Mostly Cloudy
2:55 AM 66.2 °F - 66.2 °F 100% 30.02 in 10.0 mi Calm Calm - N/A   Overcast
3:15 AM 66.2 °F - 66.2 °F 100% 30.02 in 10.0 mi Calm Calm - N/A   Mostly Cloudy
3:35 AM 66.2 °F - 66.2 °F 100% 30.02 in 9.0 mi Calm Calm - N/A   Mostly Cloudy
3:55 AM 66.2 °F - 66.2 °F 100% 30.02 in 10.0 mi Calm Calm - N/A   Mostly Cloudy
4:15 AM 66.2 °F - 66.2 °F 100% 30.03 in 10.0 mi Calm Calm - N/A   Mostly Cloudy
4:35 AM 66.2 °F - 66.2 °F 100% 30.02 in 9.0 mi Calm Calm - N/A   Partly Cloudy
4:55 AM 66.2 °F - 66.2 °F 100% 30.02 in 10.0 mi Calm Calm - N/A   Mostly Cloudy
5:15 AM 66.2 °F - 66.2 °F 100% 30.02 in 10.0 mi Calm Calm - N/A   Scattered Clouds
5:35 AM 66.2 °F - 66.2 °F 100% 30.01 in 9.0 mi Calm Calm - N/A   Partly Cloudy
5:55 AM 66.2 °F - 66.2 °F 100% 30.02 in 8.0 mi Calm Calm - N/A   Scattered Clouds
6:15 AM 64.4 °F - 64.4 °F 100% 30.03 in 8.0 mi Calm Calm - N/A   Partly Cloudy
6:35 AM 64.4 °F - 64.4 °F 100% 30.03 in 5.0 mi Calm Calm - N/A   Clear
6:55 AM 64.4 °F - 64.4 °F 100% 30.04 in 5.0 mi Calm Calm - N/A   Clear
7:15 AM 66.2 °F - 66.2 °F 100% 30.04 in 8.0 mi Calm Calm - N/A   Clear
7:35 AM 66.2 °F - 66.2 °F 100% 30.04 in 7.0 mi Calm Calm - N/A   Partly Cloudy
7:55 AM 68.0 °F - 66.2 °F 94% 30.05 in 7.0 mi Calm Calm - N/A   Clear
8:15 AM 69.8 °F - 68.0 °F 94% 30.05 in 9.0 mi Calm Calm - N/A   Clear
10:55 AM 77.0 °F - 68.0 °F 74% 30.06 in 10.0 mi SW 8.1 mph - N/A   Unknown
11:15 AM 77.0 °F - 66.2 °F 69% 30.06 in 10.0 mi WSW 5.8 mph - N/A   Partly Cloudy
11:35 AM 77.0 °F - 66.2 °F 69% 30.06 in 10.0 mi WSW 6.9 mph - N/A   Partly Cloudy
11:55 AM 78.8 °F - 66.2 °F 65% 30.06 in 10.0 mi WSW 9.2 mph - N/A   Scattered Clouds
12:15 PM 77.0 °F - 66.2 °F 69% 30.07 in 10.0 mi West 10.4 mph - N/A   Mostly Cloudy
12:35 PM 78.8 °F - 66.2 °F 65% 30.07 in 10.0 mi SW 8.1 mph - N/A   Scattered Clouds
12:55 PM 78.8 °F - 66.2 °F 65% 30.06 in 10.0 mi Variable 6.9 mph - N/A   Scattered Clouds
1:15 PM 78.8 °F - 64.4 °F 61% 30.07 in 10.0 mi West 9.2 mph - N/A   Scattered Clouds
1:35 PM 80.6 °F 82.7 °F 66.2 °F 61% 30.06 in 10.0 mi West 10.4 mph - N/A   Scattered Clouds
1:55 PM 80.6 °F 81.8 °F 62.6 °F 54% 30.07 in 10.0 mi WSW 10.4 mph - N/A   Scattered Clouds
2:15 PM 80.6 °F 81.8 °F 62.6 °F 54% 30.06 in 10.0 mi WNW 9.2 mph - N/A   Scattered Clouds
2:35 PM 82.4 °F 83.9 °F 64.4 °F 54% 30.06 in 10.0 mi West 6.9 mph 13.8 mph N/A   Partly Cloudy
2:55 PM 80.6 °F 82.3 °F 64.4 °F 58% 30.05 in 10.0 mi SW 9.2 mph - N/A   Scattered Clouds
3:15 PM 80.6 °F 81.8 °F 62.6 °F 54% 30.05 in 10.0 mi WSW 5.8 mph 11.5 mph N/A   Scattered Clouds
3:35 PM 80.6 °F 82.3 °F 64.4 °F 58% 30.04 in 10.0 mi WSW 6.9 mph - N/A   Mostly Cloudy
3:55 PM 80.6 °F 82.3 °F 64.4 °F 58% 30.04 in 9.0 mi SW 9.2 mph - N/A   Mostly Cloudy
4:15 PM 80.6 °F 82.3 °F 64.4 °F 58% 30.03 in 9.0 mi SW 8.1 mph - N/A   Mostly Cloudy
4:35 PM 82.4 °F 83.9 °F 64.4 °F 54% 30.03 in 10.0 mi SW 8.1 mph - N/A   Scattered Clouds
4:55 PM 80.6 °F 81.8 °F 62.6 °F 54% 30.03 in 10.0 mi WSW 6.9 mph 13.8 mph N/A   Scattered Clouds
5:15 PM 82.4 °F 83.4 °F 62.6 °F 51% 30.03 in 10.0 mi WSW 8.1 mph 15.0 mph N/A   Scattered Clouds
5:35 PM 80.6 °F 81.8 °F 62.6 °F 54% 30.04 in 10.0 mi WNW 5.8 mph 13.8 mph N/A   Partly Cloudy
5:55 PM 82.4 °F 83.4 °F 62.6 °F 51% 30.03 in 10.0 mi WNW 4.6 mph 11.5 mph N/A   Partly Cloudy
6:15 PM 82.4 °F 83.4 °F 62.6 °F 51% 30.03 in 10.0 mi WNW 6.9 mph - N/A   Partly Cloudy
6:35 PM 80.6 °F 81.8 °F 62.6 °F 54% 30.03 in 10.0 mi WSW 8.1 mph - N/A   Clear
6:55 PM 80.6 °F 82.3 °F 64.4 °F 58% 30.03 in 10.0 mi SW 4.6 mph - N/A   Mostly Cloudy
7:15 PM 80.6 °F 81.8 °F 62.6 °F 54% 30.03 in 10.0 mi West 5.8 mph - N/A   Mostly Cloudy
7:35 PM 78.8 °F - 62.6 °F 57% 30.02 in 10.0 mi West 3.5 mph - N/A   Scattered Clouds
7:55 PM 77.0 °F - 62.6 °F 61% 30.02 in 10.0 mi Calm Calm - N/A   Partly Cloudy
8:15 PM 73.4 °F - 66.2 °F 78% 30.03 in 10.0 mi Calm Calm - N/A   Clear
8:35 PM 71.6 °F - 66.2 °F 83% 30.03 in 10.0 mi Calm Calm - N/A   Partly Cloudy
8:55 PM 69.8 °F - 66.2 °F 88% 30.04 in 10.0 mi Calm Calm - N/A   Mostly Cloudy
9:15 PM 69.8 °F - 66.2 °F 88% 30.05 in 10.0 mi Calm Calm - N/A   Mostly Cloudy
9:35 PM 68.0 °F - 66.2 °F 94% 30.06 in 10.0 mi Calm Calm - N/A   Mostly Cloudy
9:55 PM 68.0 °F - 66.2 °F 94% 30.06 in 10.0 mi Calm Calm - N/A   Overcast
10:15 PM 68.0 °F - 66.2 °F 94% 30.06 in 10.0 mi Calm Calm - N/A   Overcast
10:35 PM 68.0 °F - 66.2 °F 94% 30.06 in 10.0 mi Calm Calm - N/A   Overcast
10:55 PM 66.2 °F - 66.2 °F 100% 30.06 in 10.0 mi Calm Calm - N/A   Overcast
11:15 PM 66.2 °F - 64.4 °F 94% 30.06 in 10.0 mi Calm Calm - N/A   Mostly Cloudy
11:35 PM 66.2 °F - 64.4 °F 94% 30.06 in 10.0 mi Calm Calm - N/A   Overcast
11:55 PM 66.2 °F - 64.4 °F 94% 30.06 in 10.0 mi Calm Calm - N/A   Mostly Cloudy